Tracking 17844 objects as of 24-August-2016
HD Live streaming from Space Station
objects crossing your sky now

CZ-4C DEB

Track CZ-4C DEB now!
10-day predictions


NORAD ID: 38305
Int'l Code: 2010-009J
Perigee: 1,206.4 km
Apogee: 1,333.8 km
Inclination: 63.5 °
Period: 110.8 minutes
Semi major axis: 7641 km
RCS: 0.0013 m2 (small)
Launch date: March 5, 2010
Source: People's Republic of China (PRC)
Launch site: Jiuquan Satellite Launch Center, China (JSC)

Note: This is SATELLITE DEBRIS
Your satellite tracking list
Your tracking list is empty





NASA's NSSDC Master Catalog

Two Line Element Set (TLE):
1 38305U 10009J   16236.00558166  .00000003  00000-0  26820-3 0  9992
2 38305  63.5008   2.8533 0083379 103.0258   9.3627 12.99786074306620
Source of the keplerian elements: AFSPC

N2YO: 454